STARLINK-36526, 67508

Orbit data source: Space-Track

STARLINK-36526, 67508 is a payload satellite owned by SpaceX/Seattle (US) in LEO that was launched on Sun, 18 Jan 2026 UTC via an FALCON 9 launch vehicle from the Air Force Eastern Test Range (AFETR). Payload-class satellites include a variety of spacecraft equipped with specific instruments for various scientific and technological missions. These include communications satellites like Starlink; space stations such as the ISS; scientific satellites like the Hubble; Earth observation satellites from companies like Planet Labs, Umbra, and HawkEye 360; GPS; miniature CubeSats for education and research; and military/defense satellites.

Loading next visibility...
Identifier
67508, 2026-012R
Orbit
LEO
Country
Flag of USUS
Related business
Manufacturer
SpaceX/Seattle
Mission
Operational Commercial Communications
Bus & Motor
STARLINK V2MO, Unknown motor
Mass
575 kg wet, ~530 kg dry
Launch date (UTC)
2026-01-18 (5 months ago)
Launch vehicle
FALCON 9
Launch site
Air Force Eastern Test Range (AFETR)
Object type
Payload
Rocket body
Debris
Shape & HBR
Box + 2 Pan, 17.7 m
Radar Cross Section
36.964 m², Large (>1 m²)

Expand to show TLE details & history
Last TLE update: 17 hours ago

TLE from 17 hours ago
0 STARLINK-36526
1 67508U 26012R   26171.12834019  .00012558  00000-0  46510-3 0  9992
2 67508  43.0030  95.4279 0002356 254.3252 105.7340 15.27579084 23433
Epoch: 2026-06-20T03:04Z
TLE epoch observation values (Epoch: 2026-06-20T03:04:48.592Z)
Latitude
-0°
Longitude
140.87802°
Altitude
483.266 km
Speed
7.625 km/s
True Right ascension
06h 21m 42s
True Declination
0° 00' 00"
Sunlit
Object was in daylight at epoch
Visualization orbit readout
Latitude
Unknown
Longitude
Unknown
Altitude
Unknown
Speed
Unknown
Apparent Right ascension
Unknown
Apparent Declination
Unknown
Sunlit
N/A
Visualization observer readout
Local Sidereal Time
07:19:11
Azimuth
Unknown
Elevation
Unknown
Doppler factor
Unknown
Orbital elements
Apogee altitude
486.613 km
Perigee altitude
483.38 km
Semi-major axis
6,863.134 km
Eccentricity
0.00024
Inclination
43.003°
RAAN
95.4279°
Arg. of periapsis
254.3252°
True anomaly
105.75998°
Mean anomaly
105.734°
Eccentric anomaly
105.74699°
Mean motion
3.81733 °/min
Orbital period
94.31 mins
BSTAR
0.0004651
Loading maneuver chart data...
Computing Atmospheric mass density...
Loading historical data...
Loading historical data...
Loading historical data...
Loading historical data...
Loading historical data...
Loading historical data...
Loading historical data...

Documentation

Showing up to 5 results
|